Norfolk, NE

9:02 AM CST on February 19, 2017 (GMT -0600)
Stefan Memorial

Weather History for KOFK - March, 2013

Change the Weather History Date:

Saturday, March 9, 2013

  Actual Average Record
Temperature  
Mean Temperature 41 °F 35 °F  
Max Temperature 51 °F 45 °F 76 °F (1904)
Min Temperature 30 °F 24 °F -10 °F (1912)
Degree Days  
Heating Degree Days 24 30  
Month to date heating degree days 297 288  
Since 1 July heating degree days 5218 5381  
Cooling Degree Days 0 0  
Month to date cooling degree days 0 0  
Year to date cooling degree days 0 0  
Moisture  
Dew Point 37 °F    
Average Humidity 92    
Maximum Humidity 100    
Minimum Humidity 83    
Precipitation  
Precipitation 0.60 in 0.04 in 0.74 in (1970)
Month to date precipitation 0.61 0.36  
Year to date precipitation 1.51 1.71  
Snow  
Snow 1.00 in 0.20 in - ()
Month to date snowfall 1.0 1.6  
Since 1 July snowfall 15.9 24.4  
Snow Depth 0.00 in    
Sea Level Pressure  
Sea Level Pressure 29.69 in    
Wind  
Wind Speed 14 mph (ENE)    
Max Wind Speed 28 mph    
Max Gust Speed 36 mph    
Visibility 4 miles    
Events Rain , Snow , Thunderstorm    
T = Trace of Precipitation, MM = Missing Value Source: NWS Daily Summary

Daily Weather History Graph

Daily Weather History Graph

Search for Another Location

Airport or City:

Trip Planner

Search our weather history database for the weather conditions in past years. The results will help you decide how hot, cold, wet, or windy it might be!

Date:

Astronomy

Mar. 09, 2013 Rise Set
Actual Time 6:51 AM CST 6:29 PM CST
Civil Twilight 6:23 AM CST 6:57 PM CST
Nautical Twilight 5:51 AM CST 7:29 PM CST
Astronomical Twilight 5:18 AM CST 8:02 PM CST
Moon 5:17 AM CST (3/9) 4:31 PM CST (3/9)
Length of Visible Light 12h 34m
Length of Day
11h 38m
Waning Crescent, 5% of the Moon is Illuminated
Mar 9
Waning Crescent
Mar 11
New
Mar 19
First Quarter
Mar 27
Full
Apr 2
Last Quarter

Hourly Weather History & Observations

Time (CST) Temp. Windchill Dew Point Humidity Pressure Visibility Wind Dir Wind Speed Gust Speed Precip Events Conditions
12:53 AM 39.2 °F 34.2 °F 37.4 °F 93% 29.82 in 6.0 mi SE 6.9 mph - 0.01 in   Overcast
12:56 AM 39.9 °F 35.8 °F 37.0 °F 89% 29.85 in 6.0 mi ESE 5.8 mph - 0.01 in   Overcast
1:56 AM 39.9 °F 35.1 °F 37.0 °F 89% 29.83 in 4.0 mi ESE 6.9 mph - N/A   Overcast
2:56 AM 39.9 °F 34.5 °F 39.0 °F 97% 29.79 in 3.0 mi SE 8.1 mph - N/A   Overcast
3:06 AM 41.0 °F 35.2 °F 39.2 °F 93% 29.76 in 2.5 mi SE 9.2 mph - N/A   Overcast
3:20 AM 41.0 °F 35.2 °F 39.2 °F 93% 29.75 in 1.8 mi SE 9.2 mph - N/A   Overcast
3:56 AM 41.0 °F 35.8 °F 39.9 °F 96% 29.75 in 1.5 mi SE 8.1 mph - 0.01 in Rain Light Rain
4:17 AM 44.6 °F 39.7 °F 42.8 °F 93% 29.73 in 2.5 mi SSE 9.2 mph - 0.01 in Rain Light Rain
4:26 AM 44.6 °F 39.2 °F 42.8 °F 93% 29.72 in 3.0 mi SSE 10.4 mph - 0.01 in   Overcast
4:50 AM 46.4 °F 41.5 °F 42.8 °F 87% 29.70 in 4.0 mi SE 10.4 mph - 0.01 in Rain Light Rain
4:51 AM 46.0 °F 41.0 °F 43.0 °F 89% 29.71 in 4.0 mi SE 10.4 mph - 0.01 in Rain Light Rain
5:37 AM 44.6 °F 38.8 °F 42.8 °F 93% 29.68 in 5.0 mi SE 11.5 mph - 0.01 in   Overcast
5:56 AM 45.0 °F 39.3 °F 42.1 °F 90% 29.69 in 5.0 mi SE 11.5 mph - 0.01 in   Overcast
6:30 AM 44.6 °F 38.4 °F 41.0 °F 87% 29.67 in 5.0 mi SSE 12.7 mph - 0.00 in Rain Light Rain
6:39 AM 44.6 °F 39.2 °F 42.8 °F 93% 29.67 in 5.0 mi SE 10.4 mph - 0.00 in Rain Light Rain
6:56 AM 44.1 °F 38.6 °F 41.0 °F 89% 29.69 in 4.0 mi SE 10.4 mph - 0.00 in   Overcast
7:38 AM 42.8 °F 37.5 °F 41.0 °F 93% 29.65 in 2.0 mi ESE 9.2 mph - N/A   Overcast
7:46 AM 42.8 °F 37.5 °F 41.0 °F 93% 29.65 in 1.8 mi ESE 9.2 mph - N/A   Overcast
7:56 AM 43.0 °F 36.8 °F 41.0 °F 93% 29.66 in 1.5 mi SE 11.5 mph - N/A   Overcast
8:14 AM 42.8 °F 36.2 °F 41.0 °F 93% 29.65 in 2.5 mi SE 12.7 mph - 0.01 in Rain Light Rain
8:25 AM 42.8 °F 36.6 °F 41.0 °F 93% 29.64 in 1.2 mi SE 11.5 mph - 0.01 in   Overcast
8:56 AM 43.0 °F 36.4 °F 42.1 °F 97% 29.65 in 1.0 mi SE 12.7 mph - 0.01 in   Overcast
9:56 AM 46.9 °F - 45.0 °F 93% 29.63 in 2.0 mi SSE 17.3 mph - 0.01 in Rain Light Rain
10:02 AM 46.4 °F 39.8 °F 44.6 °F 93% 29.61 in 3.0 mi SSE 16.1 mph - 0.00 in   Overcast
10:56 AM 48.9 °F - 45.0 °F 86% 29.62 in 4.0 mi SSE 13.8 mph - 0.00 in   Overcast
11:21 AM 48.2 °F - 44.6 °F 87% 29.60 in 5.0 mi SSE 15.0 mph - N/A   Overcast
11:56 AM 51.1 °F - 46.0 °F 83% 29.61 in 5.0 mi SSE 15.0 mph - N/A   Haze
12:21 PM 50.0 °F - 46.4 °F 87% 29.59 in 5.0 mi SSE 13.8 mph - N/A   Overcast
12:56 PM 50.0 °F - 46.0 °F 86% 29.61 in 5.0 mi Calm Calm - N/A   Overcast
1:03 PM 50.0 °F - 44.6 °F 82% 29.59 in 5.0 mi North 6.9 mph - N/A   Haze
1:24 PM 44.6 °F 38.4 °F 42.8 °F 93% 29.59 in 2.0 mi North 12.7 mph - N/A   Overcast
1:56 PM 44.1 °F 37.7 °F 42.1 °F 93% 29.60 in 1.8 mi North 12.7 mph - N/A   Overcast
2:20 PM 42.8 °F 36.6 °F 41.0 °F 93% 29.58 in 2.0 mi North 11.5 mph - N/A   Overcast
2:38 PM 42.8 °F 37.5 °F 39.2 °F 87% 29.59 in 3.0 mi NNW 9.2 mph - N/A   Overcast
2:56 PM 43.0 °F 36.8 °F 39.9 °F 89% 29.60 in 4.0 mi North 11.5 mph - N/A   Overcast
3:56 PM 37.0 °F 27.0 °F 35.1 °F 93% 29.65 in 3.0 mi NNW 18.4 mph - N/A   Overcast
4:26 PM 37.4 °F 27.2 °F 33.8 °F 87% 29.62 in 4.0 mi NNW 19.6 mph 25.3 mph 0.03 in Rain Rain
4:43 PM 35.6 °F 25.2 °F 33.8 °F 93% 29.63 in 1.8 mi NNW 18.4 mph - 0.07 in Rain Heavy Rain
4:56 PM 36.0 °F 26.0 °F 33.1 °F 89% 29.68 in 2.5 mi NNW 17.3 mph - 0.14 in Rain Rain
5:03 PM 35.6 °F 25.5 °F 33.8 °F 93% 29.65 in 6.0 mi NNW 17.3 mph 25.3 mph 0.00 in Rain Rain
5:11 PM 35.6 °F 25.5 °F 33.8 °F 93% 29.65 in 1.8 mi NNW 17.3 mph 26.5 mph 0.04 in Rain Heavy Rain
5:20 PM 35.6 °F 25.9 °F 32.0 °F 87% 29.67 in 3.0 mi NNW 16.1 mph 26.5 mph 0.08 in Rain Rain
5:32 PM 33.8 °F 22.2 °F 30.2 °F 87% 29.68 in 5.0 mi NNW 20.7 mph 26.5 mph 0.11 in Rain , Thunderstorm Rain
5:47 PM 33.8 °F 24.3 °F 30.2 °F 87% 29.69 in 5.0 mi NNW 13.8 mph - 0.16 in Rain Rain
5:56 PM 33.1 °F 22.6 °F 30.9 °F 92% 29.72 in 4.0 mi North 16.1 mph 24.2 mph 0.19 in Rain Rain
6:56 PM 32.0 °F 18.6 °F 30.0 °F 92% 29.74 in 6.0 mi NNW 25.3 mph 29.9 mph 0.15 in   Overcast
7:25 PM 32.0 °F 19.5 °F 28.4 °F 87% 29.73 in 10.0 mi NNW 21.9 mph 27.6 mph 0.01 in Rain Light Freezing Rain
7:49 PM 32.0 °F 20.1 °F 28.4 °F 87% 29.74 in 10.0 mi NNW 19.6 mph 31.1 mph 0.01 in   Overcast
7:56 PM 30.9 °F 18.4 °F 28.0 °F 89% 29.79 in 6.0 mi NNW 20.7 mph 27.6 mph 0.01 in Snow Light Snow
8:05 PM 30.2 °F 18.1 °F 28.4 °F 93% 29.76 in 1.8 mi NNW 18.4 mph 29.9 mph 0.00 in Snow Light Snow
8:23 PM 30.2 °F 18.5 °F 28.4 °F 93% 29.74 in 1.2 mi North 17.3 mph - 0.02 in Snow Light Snow
8:56 PM 30.0 °F 17.5 °F 28.0 °F 92% 29.80 in 1.2 mi NNW 19.6 mph 27.6 mph 0.05 in Snow Light Snow
9:26 PM 30.2 °F 18.1 °F 26.6 °F 86% 29.79 in 2.5 mi NNW 18.4 mph - 0.00 in Snow Light Snow
9:35 PM 30.2 °F 17.8 °F 26.6 °F 86% 29.80 in 4.0 mi NNW 19.6 mph 26.5 mph 0.00 in Snow Light Snow
9:56 PM 30.0 °F 16.6 °F 27.0 °F 88% 29.82 in 6.0 mi North 23.0 mph 32.2 mph 0.00 in   Overcast
10:56 PM 30.0 °F 17.9 °F 27.0 °F 88% 29.84 in 7.0 mi North 18.4 mph - N/A   Overcast
11:56 PM 30.0 °F 15.7 °F 27.0 °F 88% 29.82 in 6.0 mi North 26.5 mph 29.9 mph 0.00 in   Overcast